[[{"header":{"parameterUnit":"m.s-1","parameterCategory":1,"la1":30.2991,"la2":30.254,"lo1":-89.0895,"lo2":-89.0444,"dy":0.0017,"dx":0.0017,"nx":28,"ny":28,"refTime":"2025-03-19T21:00:00:Z","depth":0,"parameterNumber":2,"parameterNumberName":"U-component_of_WINDS"},"data":[0,0,0,0,0,0,0,0,0,0,0,0,0,0,0,0,0,0,0,0,0,0,0,0,0,0,0,0,0,0,0,0,0,0,0,0,0,0,0,0,0,0,0,0,0,0,0,0,0,0,0,0,0,0,0,0,0,0,5.0106,5.0104,0,4.9979,4.9977,4.9976,4.9831,4.9829,4.9827,4.9825,4.9697,4.9695,4.9694,0,0,0,0,0,0,0,0,0,0,0,0,0,5.0226,5.0224,5.0106,5.0104,5.0103,4.9979,4.9977,4.9976,4.9832,4.9829,4.9826,4.9824,4.9697,4.9695,4.9694,0,0,0,0,0,0,0,0,0,0,0,0,0,5.0144,5.0224,5.0106,5.0016,5.0006,4.998,4.9977,4.9975,4.9832,4.9829,4.9826,4.9823,4.9698,4.9696,4.9693,4.9746,0,0,4.9687,4.9686,0,0,0,0,0,0,0,0,5.0149,5.014,5.0031,5.0022,5.0011,4.9917,4.9972,4.9898,4.9833,4.9898,4.9825,4.9821,4.9773,4.9764,4.9748,4.974,4.9734,4.9687,4.9686,4.9685,4.9684,0,0,0,0,0,0,0,5.0155,5.0144,5.0055,5.0029,5.0017,4.9983,4.9967,4.9958,4.9855,4.9892,4.9882,4.9868,4.9767,4.975,4.9744,4.9732,4.9687,4.9685,4.9684,4.9683,4.9763,4.9766,0,0,0,0,0,0,5.0174,5.015,5.0059,5.0052,5.0073,4.9983,4.9966,4.9951,4.9855,4.9837,4.9871,4.9862,4.9755,4.9746,4.9739,4.9794,4.9685,4.9683,4.9682,4.9759,4.9764,4.9767,0,0,0,0,0,0,5.0177,5.0167,5.0065,5.0098,5.0082,4.9984,4.9969,4.995,4.9933,4.9839,4.982,4.9873,4.9752,4.9742,4.9745,4.9788,4.9682,4.968,4.9755,4.9761,4.9765,4.9905,0,0,0,0,0,0,5.0181,5.0169,5.0187,5.0099,5.0081,5.0073,4.9971,4.995,4.993,4.9916,4.9835,4.9819,4.9749,4.9749,4.9743,4.9783,4.9678,4.9751,4.9758,4.9764,4.9897,4.9915,4.993,0,0,0,0,0,5.0186,5.0231,5.0188,5.0178,5.0101,5.0076,5.0065,4.9983,4.9934,4.9951,4.9892,4.9822,4.9785,4.9751,4.9743,4.9782,4.9748,4.9756,4.9763,4.9889,4.9911,4.993,0,0,0,0,0,0,5.0325,5.0218,5.0169,5.0188,5.0142,5.0051,5.0071,5.0009,4.9976,4.9965,4.9866,4.9849,4.9865,4.9824,4.9788,4.9829,4.9756,4.9763,4.9855,4.9875,4.9891,4.99,4.9677,0,0,0,0,0,5.0359,5.0346,5.0253,5.0278,5.0258,5.0169,5.0155,5.0096,5.0045,5.0024,4.9964,4.9918,4.9896,4.9883,4.9857,4.9891,4.9872,4.9914,4.9931,4.9945,4.9952,4.9968,4.9986,4.9792,4.9792,4.9792,0,0,5.0427,5.0366,5.0364,5.0305,5.0263,5.0253,5.0153,5.0147,5.0139,5.0023,5.0023,4.9979,4.992,4.994,4.9945,4.9906,5.0001,4.9955,4.9967,4.9965,4.9977,4.9996,5.0012,4.9797,4.9796,4.9795,0,0,5.0545,5.0499,5.0515,5.0475,5.0412,5.0353,5.0358,5.0277,5.0243,5.0241,5.0155,5.0145,5.0108,5.0071,5.0047,5.0156,5.009,5.015,5.0237,5.0254,5.0269,5.0282,5.0322,5.0337,5.0157,5.0158,5.0158,0,5.0638,5.0619,5.0531,5.0531,5.0508,5.0404,5.0421,5.0386,5.0319,5.0306,5.0264,5.0217,5.017,5.018,5.0207,5.0191,5.0194,5.0158,5.0274,5.0286,5.0297,5.0333,5.0348,5.0165,5.0164,5.0164,5.0163,0,5.0736,5.0725,5.0746,5.0684,5.0663,5.0672,5.0587,5.0577,5.0521,5.0468,5.0469,5.0409,5.0371,5.0369,5.0314,5.0372,5.0349,5.0293,5.0217,5.0325,5.0357,5.037,5.0176,5.0173,5.0171,5.0169,0,0,5.0936,5.0828,5.0837,5.0809,5.0734,5.0724,5.0729,5.0691,5.0685,5.0643,5.0645,5.0618,5.0565,5.0539,5.0479,5.0494,5.0585,5.0434,5.0432,5.0464,5.0646,5.0689,5.0706,5.0542,5.0544,5.0546,5.065,0,5.1042,5.1042,5.0965,5.0988,5.0977,5.088,5.0885,5.084,5.0791,5.0775,5.0721,5.0703,5.0635,5.0618,5.0629,5.0572,5.062,5.0563,5.0543,5.0543,5.056,5.0723,5.0767,5.0868,5.0663,5.0665,5.0666,0,5.1163,5.1129,5.1151,5.1077,5.107,5.1075,5.1035,5.1021,5.097,5.0933,5.0905,5.0838,5.0838,5.0769,5.0769,5.0732,5.072,5.0691,5.0693,5.0687,5.0611,5.0721,5.0899,5.0914,5.0685,5.0684,5.0682,0,5.1308,5.1267,5.1275,5.1254,5.1168,5.1174,5.1139,5.1084,5.1067,5.1033,5.1021,5.0988,5.097,5.0946,5.0872,5.0828,5.0882,5.0805,5.0851,5.0854,5.0866,5.0866,5.1044,5.086,5.086,5.086,5.0859,0,5.1432,5.145,5.1339,5.1345,5.1362,5.1274,5.1294,5.1249,5.1202,5.1197,5.1112,5.111,5.1012,5.1,5.0942,5.0952,5.0945,5.0915,5.09,5.0922,5.0926,5.0912,5.0903,5.0863,5.0863,5.0862,5.0861,0,5.1596,5.1522,5.1525,5.1444,5.1425,5.1441,5.1372,5.1374,5.1321,5.1316,5.131,5.1226,5.1207,5.1132,5.1094,5.1056,5.1084,5.1054,5.1102,5.1091,5.1142,5.1138,5.1316,5.1335,5.1141,5.1143,5.1144,0,5.1679,5.1691,5.1612,5.1603,5.1571,5.1558,5.154,5.1456,5.1441,5.1385,5.1394,5.1368,5.1343,5.1317,5.1253,5.1225,5.1193,5.1258,5.1188,5.1211,5.1194,5.1194,5.1194,5.1272,5.1275,5.1277,5.1279,0,5.1836,5.18,5.1778,5.1745,5.1727,5.1696,5.166,5.1658,5.1564,5.1553,5.1532,5.1513,5.1476,5.1451,5.1413,5.1377,5.1313,5.1302,5.131,5.1333,5.136,5.1346,5.1142,5.1297,5.1295,5.1294,5.1293,5.1292,5.1962,5.1968,5.1914,5.1893,5.1858,5.1827,5.1825,5.1773,5.1754,5.1716,5.1668,5.1655,5.1605,5.1546,5.1516,5.1504,5.1468,5.1482,5.1485,5.1489,5.15,5.1364,5.1497,5.1497,5.1496,5.1495,5.1495,0,5.2114,5.2075,5.2057,5.201,5.1995,5.1936,5.1895,5.1885,5.1874,5.1833,5.181,5.1788,5.1765,5.1701,5.1671,5.1675,5.1645,5.167,5.1668,5.1661,5.1534,5.1529,5.1694,5.1694,5.1694,5.1694,5.1694,5.1694,5.2191,5.2198,5.2157,5.2147,5.2107,5.2093,5.2074,5.2046,5.2013,5.1992,5.1972,5.1931,5.1881,5.1847,5.1824,5.1806,5.1799,5.1834,5.1806,5.1689,5.167,5.1651,5.1646,5.1833,5.1833,5.1933,5.1934,5.1935]},{"header":{"parameterUnit":"m.s-1","parameterCategory":1,"la1":30.2991,"la2":30.254,"lo1":-89.0895,"lo2":-89.0444,"dy":0.0017,"dx":0.0017,"nx":28,"ny":28,"refTime":"2025-03-19T21:00:00:Z","depth":0,"parameterNumber":3,"parameterNumberName":"V-component_of_WINDS"},"data":[0,0,0,0,0,0,0,0,0,0,0,0,0,0,0,0,0,0,0,0,0,0,0,0,0,0,0,0,0,0,0,0,0,0,0,0,0,0,0,0,0,0,0,0,0,0,0,0,0,0,0,0,0,0,0,0,0,0,2.4558,2.4561,0,2.4876,2.4879,2.4883,2.4952,2.4949,2.4947,2.4945,2.527,2.528,2.5291,0,0,0,0,0,0,0,0,0,0,0,0,0,2.4007,2.4016,2.4558,2.4562,2.4566,2.4875,2.488,2.4884,2.4952,2.4949,2.4946,2.4944,2.5266,2.5279,2.5292,0,0,0,0,0,0,0,0,0,0,0,0,0,2.4277,2.402,2.4557,2.4637,2.4647,2.4874,2.488,2.4885,2.4953,2.4949,2.4946,2.4943,2.5262,2.5278,2.5294,2.5464,0,0,2.5343,2.5351,0,0,0,0,0,0,0,0,2.4262,2.4297,2.4621,2.4632,2.4644,2.4871,2.4805,2.5079,2.4954,2.4837,2.4945,2.4941,2.514,2.5166,2.5233,2.5479,2.5493,2.5345,2.5355,2.5362,2.5366,0,0,0,0,0,0,0,2.4243,2.4284,2.4684,2.4626,2.464,2.4656,2.4691,2.4857,2.5004,2.4847,2.4852,2.4889,2.5145,2.5217,2.5241,2.5498,2.5344,2.5359,2.5369,2.5375,2.5895,2.5899,0,0,0,0,0,0,2.421,2.4268,2.4673,2.4693,2.444,2.4669,2.4707,2.4801,2.5002,2.503,2.4892,2.4891,2.5191,2.5222,2.5253,2.5463,2.5362,2.5377,2.5386,2.5891,2.5896,2.59,0,0,0,0,0,0,2.4198,2.4246,2.4661,2.4482,2.4536,2.4682,2.4787,2.4809,2.4882,2.5036,2.5063,2.4939,2.519,2.523,2.541,2.5476,2.5384,2.5399,2.5886,2.5893,2.5898,2.5886,0,0,0,0,0,0,2.4182,2.4241,2.4308,2.4483,2.4546,2.4813,2.4791,2.4818,2.4909,2.4912,2.5087,2.5113,2.519,2.5385,2.5426,2.5496,2.5412,2.5881,2.5889,2.5896,2.5881,2.5891,2.5899,0,0,0,0,0,2.4162,2.4293,2.4311,2.436,2.4632,2.4817,2.4853,2.4939,2.4914,2.4982,2.5081,2.5107,2.5461,2.5403,2.545,2.5526,2.5877,2.5887,2.5896,2.5877,2.5889,2.5899,0,0,0,0,0,0,2.4122,2.4317,2.434,2.4531,2.4657,2.4828,2.4917,2.4949,2.5085,2.5081,2.5182,2.5221,2.5394,2.5478,2.541,2.5699,2.5668,2.5687,2.5638,2.5651,2.5659,2.5636,2.5425,0,0,0,0,0,2.4135,2.427,2.4433,2.4585,2.4647,2.4771,2.4854,2.491,2.5044,2.5098,2.521,2.5339,2.5479,2.5569,2.5707,2.5893,2.5931,2.5968,2.5977,2.5983,2.5999,2.6101,2.6118,2.5931,2.593,2.593,0,0,2.4165,2.4288,2.4367,2.458,2.4684,2.482,2.4815,2.496,2.5061,2.512,2.5296,2.5382,2.5533,2.5716,2.5802,2.5791,2.6059,2.5995,2.5999,2.6011,2.6112,2.613,2.6145,2.5937,2.5936,2.5935,0,0,2.4287,2.4394,2.4532,2.4636,2.4793,2.4874,2.4906,2.5073,2.5132,2.531,2.5356,2.5477,2.5717,2.5822,2.5906,2.6064,2.6092,2.6106,2.6153,2.6251,2.6266,2.628,2.6335,2.6354,2.612,2.612,2.612,0,2.4303,2.4511,2.4599,2.4741,2.4832,2.489,2.503,2.5126,2.532,2.5381,2.5366,2.5666,2.5771,2.5978,2.6016,2.6083,2.6122,2.6087,2.6257,2.6272,2.6286,2.6339,2.636,2.6121,2.6121,2.6121,2.6121,0,2.4522,2.4664,2.4757,2.4941,2.5043,2.5183,2.5291,2.5384,2.5429,2.551,2.569,2.5818,2.5981,2.6034,2.608,2.6247,2.6235,2.6237,2.6208,2.6303,2.6354,2.6376,2.6121,2.6121,2.6121,2.6121,0,0,2.4631,2.486,2.4892,2.4976,2.5152,2.5263,2.5404,2.5563,2.564,2.577,2.589,2.609,2.6092,2.6187,2.6245,2.6332,2.6446,2.6323,2.6328,2.6341,2.6636,2.6633,2.6656,2.6465,2.647,2.6473,2.6623,0,2.4774,2.5028,2.511,2.5322,2.5453,2.5508,2.5631,2.5751,2.583,2.5952,2.604,2.6179,2.6172,2.623,2.6317,2.6413,2.6506,2.6404,2.6577,2.6582,2.6538,2.6683,2.6682,2.6817,2.6644,2.6647,2.665,0,2.4976,2.5108,2.5333,2.5489,2.5547,2.5656,2.5807,2.5924,2.606,2.6111,2.6216,2.6267,2.6414,2.6375,2.6579,2.6507,2.6583,2.664,2.6647,2.6668,2.6622,2.6707,2.6863,2.6883,2.6683,2.668,2.6678,0,2.503,2.5265,2.543,2.5499,2.5686,2.5761,2.5842,2.5975,2.6065,2.6196,2.6255,2.6402,2.6482,2.6594,2.6682,2.6646,2.6878,2.6847,2.6924,2.6921,2.6971,2.6967,2.7141,2.7019,2.7018,2.7018,2.7018,0,2.5182,2.5317,2.5456,2.5557,2.5709,2.5801,2.5948,2.6032,2.615,2.6267,2.6323,2.6432,2.6541,2.6664,2.6733,2.689,2.6926,2.6971,2.6988,2.6967,2.6961,2.7018,2.7011,2.7024,2.7022,2.7021,2.702,0,2.527,2.5369,2.5551,2.5713,2.5756,2.5861,2.5998,2.6097,2.6177,2.6325,2.6365,2.649,2.6637,2.6735,2.6923,2.697,2.7141,2.7156,2.7095,2.7103,2.7174,2.7165,2.7391,2.7425,2.7279,2.7281,2.7282,0,2.536,2.5465,2.5636,2.5719,2.58,2.5933,2.6024,2.6117,2.6209,2.637,2.645,2.66,2.6725,2.6957,2.7064,2.7208,2.7227,2.7296,2.7249,2.7223,2.7227,2.722,2.723,2.7303,2.7304,2.7305,2.7306,0,2.5509,2.5552,2.5681,2.5828,2.5934,2.6054,2.6174,2.6238,2.6351,2.6452,2.6602,2.6699,2.689,2.7038,2.7191,2.7273,2.7309,2.7319,2.7345,2.7324,2.7284,2.7306,2.7115,2.7314,2.7313,2.7313,2.7312,2.7312,2.5601,2.5696,2.583,2.5972,2.6071,2.6181,2.6282,2.6374,2.6501,2.6663,2.671,2.6866,2.6997,2.7206,2.7291,2.7414,2.7407,2.7444,2.7453,2.7461,2.746,2.7264,2.7442,2.7442,2.7442,2.7441,2.7441,0,2.5752,2.5841,2.597,2.6135,2.6246,2.6268,2.6401,2.6492,2.6629,2.6748,2.6869,2.7041,2.7184,2.7301,2.7449,2.7524,2.7544,2.756,2.7555,2.7573,2.7459,2.7422,2.7541,2.7541,2.7541,2.7541,2.7541,2.7541,2.5843,2.6005,2.6063,2.6273,2.6361,2.6515,2.6588,2.6689,2.6785,2.6974,2.7093,2.7168,2.7286,2.7442,2.7574,2.7604,2.7656,2.7668,2.7702,2.7593,2.7582,2.7571,2.7537,2.7679,2.7679,2.7807,2.7808,2.7809]}]]